Flag for Canada Weather past 2 weeks in Ottawa, Ontario, Canada

Now
34 °F

Overcast.


Feels Like: 30 °F
Forecast: 17 / 32 °F
Wind: 5 mph from Southwest

Location: Ottawa Int'L. Ont.

Current Time: Mar 27, 2015 at 12:37:12 AM

Latest Report: Mar 27, 2015 at 12:00 AM


Visibility: 15 mi

Pressure: 29.74 "Hg

Humidity: 93%

Dew point: 32 °F

Location of OttawaLocation

Historic Weather in Ottawa — Graph

°F

Ottawa temperature yesterday

Maximum temperature yesterday: 39 °F (at 10:00 AM)
Minimum temperature yesterday: 34 °F (at 10:00 PM)
Average temperature yesterday: 37 °F

Past Weeks' High & Low Weather Summary

 TemperatureHumidityPressure
High41 °F (Mar 16, 5:00 PM)100% (Mar 15, 12:00 AM)30.64 "Hg (Mar 15, 12:00 AM)
Low1 °F (Mar 23, 7:00 AM)26% (Mar 19, 6:00 PM)29.55 "Hg (Mar 17, 6:00 AM)
Average25 °F69%30.11 "Hg
* Reported Mar 11 10:00 PM — Mar 26 10:00 PM, Ottawa, Weather by CustomWeather, © 2015

Note: Actual official high and low records may vary slightly from our data, if they occured in-between our weather recording intervals... More about our weather records

Advertising

Ottawa weather history for previous 24 hours

 ConditionsComfort  
Time TempWeatherWind HumidityBarometerVisibility
10:00 PM
Thu, Mar 26
34 °FOvercast.6 mph93%29.76 "Hg15 mi
9:00 PM36 °FOvercast.5 mph87%29.76 "Hg15 mi
8:00 PM36 °FOvercast.5 mph87%29.76 "Hg15 mi
7:00 PM36 °FOvercast.6 mph93%29.75 "Hg15 mi
6:00 PM37 °FOvercast.5 mph87%29.74 "Hg10 mi
5:00 PM37 °FMostly cloudy.6 mph87%29.72 "Hg12 mi
4:52 PM36 °FMostly cloudy.6 mph93%29.72 "Hg12 mi
4:00 PM37 °FMostly cloudy.12 mph87%29.74 "Hg12 mi
3:45 PM37 °FMostly cloudy.12 mph87%29.74 "Hg12 mi
3:00 PM39 °FOvercast.12 mph81%29.74 "Hg15 mi
2:00 PM39 °FOvercast.12 mph75%29.76 "Hg15 mi
1:00 PM39 °FOvercast.13 mph75%29.78 "Hg15 mi
12:00 PM39 °FCloudy.12 mph75%29.80 "Hg15 mi
11:00 AM39 °FMore clouds than sun.16 mph75%29.82 "Hg12 mi
10:00 AM39 °FOvercast.9 mph75%29.82 "Hg15 mi
9:00 AM37 °FOvercast.12 mph81%29.83 "Hg12 mi
8:00 AM37 °FOvercast.15 mph75%29.85 "Hg15 mi
7:00 AM37 °FOvercast.12 mph81%29.84 "Hg15 mi
6:00 AM37 °FOvercast.15 mph81%29.83 "Hg15 mi
5:00 AM37 °FPassing clouds.14 mph81%29.82 "Hg15 mi
4:00 AM37 °FFog.10 mph93%29.82 "Hg6 mi
3:00 AM37 °FFog.14 mph100%29.81 "Hg5 mi
2:00 AM37 °FDrizzle. Fog.13 mph93%29.82 "Hg4 mi
1:00 AM37 °FDrizzle. Fog.14 mph93%29.82 "Hg4 mi
12:00 AM37 °FDrizzle. Fog.13 mph93%29.84 "Hg5 mi
Weather by CustomWeather, © 2015

See weather overviewHow to use our weather pages